| time (UTC) | temp F | wind direction | speed knots | gust knots | rain 1hr in | rain 24hr in | rain mn in | humidity % | barometer mb |
| 20260506010004 | 45 | 15 | 1.7 | 6.1 | 0.00 | 0.00 | 0.00 | 74 | 1014.7 |
| 20260506004503 | 45 | 14 | 2.6 | 7.0 | 0.00 | 0.00 | 0.00 | 74 | 1014.6 |
| 20260506003003 | 46 | 8 | 2.6 | 10.4 | 0.00 | 0.00 | 0.00 | 75 | 1014.6 |
| 20260506001503 | 46 | 26 | 2.6 | 7.0 | 0.00 | 0.00 | 0.00 | 81 | 1014.6 |
| 20260506000004 | 47 | 17 | 2.6 | 7.0 | 0.00 | 0.00 | 0.00 | 80 | 1014.6 |
| 20260505234503 | 47 | 28 | 2.6 | 6.1 | 0.00 | 0.00 | 0.00 | 79 | 1014.5 |
| 20260505233003 | 47 | 22 | 2.6 | 9.6 | 0.00 | 0.00 | 0.00 | 77 | 1014.5 |
| 20260505231503 | 47 | 15 | 2.6 | 8.7 | 0.00 | 0.00 | 0.00 | 77 | 1014.6 |
| 20260505230005 | 47 | 36 | 1.7 | 6.1 | 0.00 | 0.00 | 0.00 | 77 | 1014.5 |
| 20260505224503 | 48 | 52 | 1.7 | 7.0 | 0.00 | 0.00 | 0.00 | 76 | 1014.6 |
| 20260505221504 | 49 | 43 | 1.7 | 7.0 | 0.00 | 0.00 | 0.00 | 77 | 1014.5 |
| 20260505220005 | 49 | 11 | 2.6 | 7.8 | 0.00 | 0.00 | 0.00 | 77 | 1014.5 |
| 20260505214504 | 49 | 40 | 2.6 | 6.1 | 0.00 | 0.00 | 0.00 | 80 | 1014.4 |
| 20260505213003 | 49 | 12 | 2.6 | 6.1 | 0.00 | 0.00 | 0.00 | 80 | 1014.4 |
| 20260505211503 | 50 | 19 | 2.6 | 7.0 | 0.00 | 0.00 | 0.00 | 79 | 1014.4 |
| 20260505203003 | 51 | 15 | 2.6 | 7.8 | 0.00 | 0.00 | 0.00 | 76 | 1014.1 |
| 20260505201504 | 52 | 11 | 2.6 | 5.2 | 0.00 | 0.00 | 0.00 | 74 | 1014.1 |
| 20260505200004 | 52 | 354 | 2.6 | 4.3 | 0.00 | 0.00 | 0.00 | 66 | 1013.9 |
| 20260505194503 | 53 | 355 | 3.5 | 6.1 | 0.00 | 0.00 | 0.00 | 65 | 1013.7 |
| 20260505193003 | 53 | 352 | 3.5 | 7.0 | 0.00 | 0.00 | 0.00 | 64 | 1013.6 |
| 20260505191504 | 53 | 353 | 2.6 | 7.0 | 0.00 | 0.00 | 0.00 | 66 | 1013.6 |
| 20260505184504 | 53 | 353 | 3.5 | 8.7 | 0.00 | 0.00 | 0.00 | 66 | 1013.3 |
| 20260505183003 | 54 | 354 | 2.6 | 7.0 | 0.00 | 0.00 | 0.00 | 67 | 1013.2 |
| 20260505181504 | 54 | 350 | 2.6 | 7.0 | 0.00 | 0.00 | 0.00 | 66 | 1013.2 |
| 20260505180004 | 54 | 352 | 2.6 | 7.0 | 0.00 | 0.00 | 0.00 | 63 | 1013.2 |
| 20260505174504 | 55 | 352 | 3.5 | 7.0 | 0.00 | 0.00 | 0.00 | 63 | 1013.2 |
| 20260505173003 | 55 | 352 | 3.5 | 7.0 | 0.00 | 0.00 | 0.00 | 62 | 1013.2 |
| 20260505171504 | 55 | 351 | 2.6 | 8.7 | 0.00 | 0.00 | 0.00 | 63 | 1013.3 |
| 20260505170004 | 55 | 352 | 2.6 | 8.7 | 0.00 | 0.00 | 0.00 | 64 | 1013.3 |
| 20260505164504 | 55 | 350 | 2.6 | 7.8 | 0.00 | 0.00 | 0.00 | 64 | 1013.3 |
| 20260505163003 | 55 | 352 | 3.5 | 9.6 | 0.00 | 0.00 | 0.00 | 63 | 1013.2 |
| 20260505161504 | 56 | 351 | 3.5 | 8.7 | 0.00 | 0.00 | 0.00 | 61 | 1013.2 |
| 20260505153004 | 56 | 352 | 3.5 | 9.6 | 0.00 | 0.00 | 0.00 | 61 | 1013.4 |
| 20260505151503 | 56 | 353 | 3.5 | 8.7 | 0.00 | 0.00 | 0.00 | 61 | 1013.4 |
| 20260505123003 | 59 | 342 | 2.6 | 9.6 | 0.00 | 0.00 | 0.00 | 54 | 1013.5 |
| 20260505121504 | 60 | 348 | 4.3 | 8.7 | 0.00 | 0.00 | 0.00 | 54 | 1013.6 |
| 20260505120005 | 58 | 351 | 3.5 | 7.8 | 0.00 | 0.00 | 0.00 | 56 | 1013.7 |
| 20260505114503 | 60 | 352 | 3.5 | 9.6 | 0.00 | 0.00 | 0.00 | 54 | 1013.6 |
| 20260505113003 | 58 | 353 | 3.5 | 9.6 | 0.00 | 0.00 | 0.00 | 55 | 1013.7 |
| 20260505111503 | 57 | 346 | 3.5 | 7.0 | 0.00 | 0.00 | 0.00 | 58 | 1013.8 |
| 20260505100005 | 56 | 352 | 2.6 | 6.1 | 0.00 | 0.00 | 0.00 | 63 | 1014.2 |
| 20260505093004 | 57 | 357 | 3.5 | 7.8 | 0.00 | 0.00 | 0.00 | 63 | 1014.3 |
| 20260505091504 | 56 | 351 | 2.6 | 9.6 | 0.00 | 0.00 | 0.00 | 65 | 1014.2 |
| 20260505084503 | 56 | 353 | 3.5 | 9.6 | 0.00 | 0.00 | 0.00 | 67 | 1014.4 |
| 20260505081504 | 53 | 355 | 2.6 | 7.8 | 0.00 | 0.00 | 0.00 | 75 | 1014.6 |
| 20260505080005 | 51 | 353 | 1.7 | 7.0 | 0.00 | 0.00 | 0.00 | 79 | 1014.6 |
| 20260505074504 | 49 | 346 | 2.6 | 7.0 | 0.00 | 0.00 | 0.00 | 80 | 1014.6 |
| 20260505073004 | 49 | 354 | 3.5 | 8.7 | 0.00 | 0.00 | 0.00 | 83 | 1014.6 |
| 20260505070005 | 48 | 352 | 3.5 | 7.8 | 0.00 | 0.00 | 0.00 | 84 | 1014.6 |
| 20260505064503 | 49 | 354 | 2.6 | 7.8 | 0.00 | 0.00 | 0.00 | 83 | 1014.7 |
| 20260505063004 | 49 | 355 | 1.7 | 6.1 | 0.00 | 0.00 | 0.00 | 83 | 1014.8 |
| 20260505061503 | 49 | 354 | 2.6 | 7.0 | 0.00 | 0.00 | 0.00 | 83 | 1014.6 |
| 20260505060005 | 47 | 349 | 1.7 | 7.0 | 0.00 | 0.00 | 0.00 | 86 | 1014.6 |
| 20260505054503 | 46 | 349 | 1.7 | 4.3 | 0.00 | 0.00 | 0.00 | 88 | 1014.5 |
| 20260505051504 | 45 | 351 | 1.7 | 4.3 | 0.00 | 0.00 | 0.00 | 88 | 1014.5 |